TimeCDT,TemperatureF,Dew PointF,Humidity,Sea Level PressureIn,VisibilityMPH,Wind Direction,Wind SpeedMPH,Gust SpeedMPH,PrecipitationIn,Events,Conditions,WindDirDegrees,DateUTC
12:34 AM,48.2,46.4,93,30.21,10.0,NE,8.1,-,0.02,Rain,Light Rain,50,2012-10-05 05:34:00
12:53 AM,48.0,46.0,93,30.22,10.0,NE,9.2,-,0.02,Thunderstorm,Overcast,40,2012-10-05 05:53:00
1:53 AM,48.0,46.0,93,30.25,8.0,NE,5.8,-,0.06,Rain-Thunderstorm,Light Thunderstorms and Rain,40,2012-10-05 06:53:00
2:24 AM,48.2,46.4,93,30.27,10.0,Calm,Calm,-,0.07,Rain-Thunderstorm,Light Rain,0,2012-10-05 07:24:00
2:48 AM,48.2,46.4,93,30.24,10.0,NNE,6.9,-,0.07,Thunderstorm,Overcast,30,2012-10-05 07:48:00
3:53 AM,48.0,45.0,89,30.22,10.0,NE,8.1,-,0.18,Rain-Thunderstorm,Light Rain,40,2012-10-05 08:53:00
4:02 AM,48.2,44.6,87,30.23,10.0,NE,5.8,-,0.00,Rain,Light Rain,50,2012-10-05 09:02:00
4:20 AM,46.4,44.6,93,30.22,10.0,ENE,8.1,-,0.01,Rain-Thunderstorm,Light Rain,70,2012-10-05 09:20:00
4:53 AM,46.9,44.1,90,30.25,7.0,NNE,5.8,-,0.03,Rain,Rain,20,2012-10-05 09:53:00
5:53 AM,46.9,43.0,86,30.26,10.0,NE,9.2,-,0.04,,Overcast,50,2012-10-05 10:53:00
6:53 AM,46.9,45.0,93,30.24,10.0,East,5.8,-,N/A,,Overcast,80,2012-10-05 11:53:00
7:39 AM,46.4,44.6,93,30.25,7.0,North,6.9,-,0.01,Rain,Light Rain,10,2012-10-05 12:39:00
7:53 AM,46.9,45.0,93,30.25,10.0,NNE,5.8,-,0.01,Rain,Light Rain,30,2012-10-05 12:53:00
8:15 AM,46.4,44.6,93,30.24,10.0,NE,5.8,-,0.00,,Overcast,40,2012-10-05 13:15:00
8:49 AM,48.2,44.6,87,30.25,10.0,NE,5.8,-,0.00,,Overcast,50,2012-10-05 13:49:00
8:53 AM,48.0,45.0,89,30.26,10.0,NE,4.6,-,0.00,,Overcast,40,2012-10-05 13:53:00
9:01 AM,48.2,44.6,87,30.25,10.0,NE,5.8,-,N/A,,Overcast,40,2012-10-05 14:01:00
9:07 AM,48.2,44.6,87,30.24,10.0,NE,5.8,-,N/A,,Overcast,50,2012-10-05 14:07:00
9:34 AM,48.2,44.6,87,30.25,10.0,NE,6.9,-,N/A,,Overcast,50,2012-10-05 14:34:00
9:53 AM,46.9,43.0,86,30.25,10.0,NE,8.1,-,0.00,Rain,Light Rain,40,2012-10-05 14:53:00
10:04 AM,46.4,42.8,87,30.24,10.0,NE,11.5,16.1,0.00,,Overcast,50,2012-10-05 15:04:00
10:35 AM,46.4,39.2,76,30.24,10.0,NE,6.9,-,0.00,Thunderstorm,Thunderstorm,50,2012-10-05 15:35:00
10:50 AM,46.4,39.2,76,30.24,10.0,ENE,9.2,-,0.00,,Overcast,60,2012-10-05 15:50:00
10:53 AM,46.9,39.0,74,30.25,10.0,NE,8.1,-,0.00,,Overcast,40,2012-10-05 15:53:00
11:54 AM,46.9,39.9,77,30.25,10.0,NNE,8.1,-,N/A,,Unknown,30,2012-10-05 16:54:00
12:31 PM,48.2,41.0,76,30.25,10.0,North,9.2,-,N/A,,Overcast,10,2012-10-05 17:31:00
12:53 PM,46.9,39.9,77,30.23,10.0,NNE,10.4,-,N/A,,Overcast,30,2012-10-05 17:53:00
1:05 PM,48.2,39.2,71,30.24,10.0,North,9.2,-,N/A,,Overcast,10,2012-10-05 18:05:00
1:53 PM,46.9,41.0,80,30.25,10.0,North,12.7,-,N/A,,Overcast,350,2012-10-05 18:53:00
2:53 PM,48.0,39.9,74,30.25,10.0,North,13.8,-,0.01,,Overcast,360,2012-10-05 19:53:00
3:18 PM,48.2,37.4,66,30.24,10.0,North,18.4,23.0,N/A,,Overcast,350,2012-10-05 20:18:00
3:27 PM,48.2,37.4,66,30.25,10.0,North,13.8,23.0,N/A,,Overcast,360,2012-10-05 20:27:00
3:53 PM,48.0,36.0,63,30.26,10.0,North,13.8,23.0,N/A,,Overcast,360,2012-10-05 20:53:00
4:53 PM,48.0,36.0,63,30.22,10.0,North,9.2,-,N/A,,Overcast,10,2012-10-05 21:53:00
5:53 PM,48.0,36.0,63,30.25,10.0,North,17.3,20.7,N/A,,Mostly Cloudy,360,2012-10-05 22:53:00
6:53 PM,45.0,36.0,71,30.25,10.0,North,6.9,-,N/A,,Clear,360,2012-10-05 23:53:00
7:53 PM,42.1,35.1,76,30.27,10.0,NNW,5.8,-,N/A,,Clear,330,2012-10-06 00:53:00
8:53 PM,41.0,35.1,79,30.29,10.0,NW,4.6,-,N/A,,Clear,320,2012-10-06 01:53:00
9:53 PM,39.0,34.0,82,30.29,10.0,NNW,5.8,-,N/A,,Clear,340,2012-10-06 02:53:00
10:53 PM,39.0,34.0,82,30.29,10.0,WNW,3.5,-,N/A,,Clear,290,2012-10-06 03:53:00
11:53 PM,37.0,33.1,86,30.30,10.0,WNW,5.8,-,N/A,,Clear,300,2012-10-06 04:53:00